Location: Gu�tanj
(46.5431°N, 14.9692°E)
Time: 07:18:58
(UTC+00:00)

Cosmos 2322 Rocket - Pass Details

Date: 03 March 2021
Orbit: 832 x 852 km, 71.0° (Epoch: 18 April)

Event Time Altitude Azimuth Distance (km) Brightness Sun altitude
Rises 19:08:06 0° 241° (WSW) 3,369 6.0 -24.5°
Reaches altitude 10° 19:10:54 10° 254° (WSW) 2,440 5.3 -24.9°
Maximum altitude 19:15:36 27° 311° (NW) 1,552 4.1 -25.7°
Drops below altitude 10° 19:20:21 10° 9° (N) 2,457 4.7 -26.5°
Sets 19:23:11 0° 21° (NNE) 3,398 5.3 -26.9°
